Temperature
18 19 19 18 18 17 17 17 17 17 16 16 16 16 16 16 17 17 17 17 17 17 17 17 16 16 16 16 16 16 16 16 16 16 16 16 16 15 15 15 15 15 15
19 19 18 18 17 17 17 17 17 17 16 16 16 16 16 16 16 16 17 17 17 17 17 17 16 16 16 16 16 16 16 16 16 16 16 16 16 16 15 15 16 15 15
18 19 18 18 17 17 17 17 17 16 16 16 16 16 16 16 16 16 17 17 17 17 17 17 16 17 17 17 16 16 16 16 15 15 15 16 16 16 16 16 16 15 15
18 18 17 17 17 17 17 17 16 16 16 16 16 16 16 16 16 16 17 17 17 17 17 17 17 17 17 16 16 16 16 15 14 14 14 15 15 16 16 15 15 15 15
17 17 17 17 17 17 17 16 16 16 16 16 16 16 16 16 16 16 17 17 17 17 17 17 17 17 17 16 16 16 15 14 14 14 14 15 15 15 15 15 15 15 15
17 17 17 17 16 16 16 16 16 16 16 16 16 16 16 16 16 16 17 17 17 17 17 17 17 17 16 16 16 16 15 14 14 14 14 15 15 15 15 15 15 15 15
17 16 16 16 16 16 16 16 16 16 16 16 15 15 16 16 16 17 17 17 17 17 17 17 17 16 16 16 16 16 15 14 14 14 14 14 15 15 15 15 14 14 14
17 16 16 16 16 16 16 16 16 16 16 15 15 15 16 16 16 17 17 17 17 17 17 17 16 16 16 16 16 15 15 14 14 14 14 14 14 14 14 14 14 14 14
17 16 16 16 16 16 16 16 15 15 15 15 15 15 16 16 16 17 17 17 17 17 17 16 16 16 16 16 16 15 15 14 14 14 14 14 14 14 14 14 14 14 13
16 16 16 16 16 16 15 15 15 15 15 15 15 15 16 16 16 17 17 17 17 17 16 16 16 16 16 16 16 15 15 14 14 14 14 14 14 14 14 14 13 13 13
16 15 16 15 15 15 15 15 15 15 15 15 15 15 15 16 16 16 17 17 17 16 16 16 16 16 16 16 15 15 15 14 14 14 14 14 14 14 14 13 13 13 13
15 15 15 15 15 15 15 15 15 15 15 15 15 15 15 16 16 16 16 16 16 16 16 16 16 16 15 15 15 15 14 14 14 14 14 14 14 14 13 13 13 13 13
15 15 15 15 15 14 14 15 14 14 14 14 15 15 15 15 15 16 16 16 16 16 16 16 16 15 15 15 14 14 14 14 14 14 14 14 14 13 13 13 13 13 13
15 15 15 15 14 14 14 14 14 14 14 14 14 14 14 14 15 15 16 16 16 16 16 16 15 15 15 14 14 14 14 14 14 13 13 13 13 13 13 13 13 13 12
14 14 14 15 14 14 14 14 14 14 14 14 14 14 14 14 15 15 16 16 16 16 16 16 15 15 14 14 14 14 14 14 14 13 13 13 13 13 13 13 13 12 12
14 14 14 14 14 14 14 14 14 14 14 14 14 14 14 14 15 15 15 15 15 15 15 15 15 14 14 14 14 14 14 14 13 13 13 13 13 13 13 13 13 12 12
14 14 14 14 14 14 14 14 14 14 14 14 14 14 14 14 15 15 15 15 15 15 15 15 14 14 14 14 14 14 14 14 14 13 13 13 13 13 13 13 13 12 12
14 13 13 14 13 14 14 13 13 14 14 14 14 14 14 14 14 15 15 15 15 15 15 15 14 14 14 14 14 14 13 14 14 13 13 13 13 13 13 13 12 12 12
13 13 13 13 13 13 13 13 13 13 13 13 14 14 14 14 14 14 14 15 15 15 14 14 14 14 14 13 13 13 13 13 13 13 13 13 13 13 13 13 12 12 12
13 13 13 13 13 13 13 13 13 13 13 13 13 14 14 14 14 14 14 14 14 14 14 14 14 14 13 13 13 13 13 13 13 13 13 13 13 13 13 12 12 11 11
12 12 12 12 12 12 12 13 13 13 13 13 13 13 13 14 14 14 14 14 14 14 14 14 14 13 13 13 13 13 13 13 13 13 13 13 13 12 12 12 11 11 11
12 12 12 12 12 12 12 12 13 13 13 13 13 13 13 13 14 14 14 14 14 13 13 13 13 13 13 13 13 13 13 13 13 13 13 13 13 12 12 11 11 11 10
11 11 12 12 12 12 12 12 12 12 12 12 12 13 13 13 13 13 13 13 13 13 13 13 13 13 13 13 13 13 13 13 12 12 12 12 12 12 11 11 10 10 10
11 11 11 11 11 11 12 12 12 12 12 12 12 13 13 13 13 13 13 13 13 13 13 13 13 12 12 12 12 12 12 12 12 12 12 11 11 11 11 10 10 10 9
11 11 11 11 11 11 11 12 12 12 12 12 12 12 12 12 12 13 13 12 12 12 12 12 12 12 12 12 12 12 12 12 12 12 11 11 11 10 10 10 10 9 9
10 10 11 11 11 11 11 11 11 11 12 12 12 12 12 12 12 12 12 12 12 12 12 12 12 12 12 12 12 12 12 12 12 11 11 11 10 10 9 9 9 9 8
Wind_Speed
13 18 24 21 19 18 17 15 15 15 15 15 16 16 16 16 16 18 18 18 17 17 16 16 16 16 17 17 17 17 17 16 17 18 18 17 17 17 17 17 15 15 16
16 21 25 22 20 18 16 15 14 14 15 16 17 17 17 17 17 18 18 18 18 17 17 16 16 16 16 16 15 15 14 14 14 16 18 17 16 17 17 17 16 13 16
18 21 23 22 20 18 16 15 14 14 15 16 17 18 18 18 18 18 19 18 17 17 16 16 16 16 15 15 14 13 11 9 8 7 12 15 15 15 15 15 15 15 15
18 20 20 21 20 18 16 15 14 14 15 16 18 18 19 18 19 19 19 18 17 16 16 16 15 15 14 14 13 10 7 4 2 3 10 14 13 14 14 14 14 14 14
16 18 20 22 20 18 16 15 14 14 15 17 18 19 19 19 19 19 19 18 17 16 16 15 15 14 13 13 11 8 4 2 5 9 16 16 13 13 13 13 13 13 13
15 16 21 22 20 18 16 15 14 15 15 18 19 20 20 20 20 19 18 17 17 16 15 14 14 13 12 11 9 6 2 4 6 10 15 15 12 11 11 12 12 12 12
13 14 22 22 20 18 17 15 15 15 16 18 20 21 20 20 20 19 18 18 16 15 15 14 13 12 12 10 8 4 1 5 3 12 15 14 11 10 10 10 10 10 11
11 14 19 21 21 19 17 15 15 15 17 19 20 21 21 20 20 19 18 17 16 15 14 13 13 12 11 9 6 2 2 6 3 10 13 12 9 8 8 8 8 8 9
10 13 14 16 18 18 17 15 15 15 17 19 20 21 21 20 19 19 18 17 15 14 13 13 12 11 10 8 6 2 2 5 4 6 11 11 8 7 6 6 6 6 6
8 11 13 13 15 15 15 15 16 16 17 19 20 21 21 20 19 18 17 16 15 14 12 12 11 10 9 8 5 3 4 6 5 6 10 10 7 5 3 3 3 3 4
6 8 10 11 10 13 14 15 16 16 18 20 20 23 21 17 17 16 16 16 15 13 12 11 10 9 9 7 6 5 6 8 4 8 11 9 6 3 1 1 1 1 1
6 6 7 9 9 9 13 14 14 14 16 16 17 19 16 16 16 15 18 16 15 13 12 11 10 10 9 9 8 8 9 11 5 9 11 10 6 2 1 1 1 2 2
6 6 6 6 7 7 7 11 10 11 13 15 18 17 15 15 15 15 13 13 13 13 11 10 10 10 11 10 11 11 10 4 1 8 12 10 6 3 2 2 3 3 3
7 7 7 6 5 6 7 7 7 7 8 9 16 17 12 8 9 11 9 11 12 11 10 11 9 12 12 10 10 9 7 3 3 8 12 11 8 5 3 4 4 5 5
9 8 7 7 6 5 6 7 8 7 7 10 13 14 12 7 7 7 8 11 11 12 10 8 8 8 7 7 8 5 4 5 3 6 10 11 9 7 5 5 5 5 5
8 8 6 7 7 6 5 6 7 6 8 10 10 12 14 11 7 5 5 6 7 10 11 8 7 4 4 4 3 3 3 2 2 2 8 10 10 8 7 6 5 4 4
7 7 7 8 8 7 7 7 6 6 7 7 8 12 13 12 9 6 5 5 5 9 9 7 6 4 2 2 2 2 2 1 0 1 3 7 9 8 7 6 5 4 3
6 7 7 7 7 7 7 7 6 6 6 6 9 10 11 12 12 7 5 5 7 8 5 3 2 2 2 2 2 2 1 1 1 2 1 2 5 6 5 5 5 4 3
6 7 6 6 7 7 7 6 6 5 6 5 7 7 9 11 11 7 5 5 7 4 3 4 3 3 3 3 3 1 1 1 1 1 1 2 4 6 5 5 5 4 4
6 6 6 4 5 6 5 5 5 5 5 4 5 6 9 9 10 8 4 5 6 4 4 4 4 3 3 3 2 1 1 2 1 1 1 3 5 5 5 5 6 5 4
5 6 6 5 5 6 5 6 6 6 6 6 5 7 8 7 8 6 5 5 6 5 5 5 4 4 3 2 2 1 2 3 3 2 2 2 3 5 5 5 5 5 5
4 5 4 5 5 5 5 5 5 5 4 5 5 5 6 6 6 5 5 5 5 5 6 5 4 4 3 3 3 2 1 1 1 2 3 3 3 4 4 4 5 6 6
3 3 4 5 5 5 5 4 4 4 3 3 4 4 4 5 5 5 4 4 5 5 5 5 5 5 4 4 4 3 3 3 1 1 2 3 3 2 2 5 6 7 7
3 2 3 4 5 4 4 4 6 5 5 4 4 4 4 4 4 5 4 4 4 4 4 5 4 4 4 3 2 2 2 2 3 1 1 2 3 3 3 3 4 6 7
3 2 2 3 3 3 5 5 5 4 3 4 4 5 4 4 4 4 5 4 5 5 5 5 4 4 3 3 3 2 2 1 2 3 2 2 1 2 3 3 4 5 6
6 5 3 5 4 3 4 5 4 4 4 3 4 4 3 3 3 4 5 5 5 5 6 5 5 6 4 4 3 3 3 2 3 3 3 3 3 2 3 3 4 5 6
Wind_Direction
139 150 156 158 157 155 153 154 156 158 159 158 155 150 145 140 136 131 128 128 126 122 118 114 111 105 101 98 94 91 89 89 88 84 76 69 66 64 59 60 67 60 61
142 150 156 158 159 157 156 155 156 159 161 161 158 154 148 143 140 136 134 131 127 123 120 116 112 107 103 101 99 97 97 100 100 99 87 73 67 65 63 62 63 64 62
140 148 156 158 159 158 157 156 157 159 162 164 160 154 150 144 140 138 136 133 129 125 122 118 113 109 106 103 102 102 105 108 108 110 94 85 72 67 67 65 64 63 62
140 147 158 158 159 158 157 156 157 160 164 163 159 154 149 145 142 138 136 133 130 126 122 118 114 111 109 107 106 108 110 100 56 41 89 81 74 70 68 66 65 63 61
139 150 156 157 159 158 157 157 158 161 162 160 157 153 148 145 142 139 137 134 130 126 123 120 118 116 114 112 112 116 113 29 3 79 92 87 78 74 70 67 65 64 61
142 151 152 157 159 158 157 158 159 159 159 157 154 151 147 146 142 140 137 133 128 127 127 125 123 121 119 117 119 122 92 345 346 86 93 93 85 78 74 70 66 64 62
146 147 154 158 159 159 158 157 159 158 156 154 152 150 148 145 142 140 137 133 132 133 132 130 128 125 123 123 124 125 8 335 50 91 91 92 89 82 76 72 67 64 62
148 145 156 161 159 159 159 157 157 157 156 153 150 150 147 145 143 142 140 138 138 138 137 135 133 129 127 128 130 133 336 336 41 103 105 103 100 89 81 77 72 67 64
145 146 153 160 159 158 157 157 156 155 155 151 148 147 143 142 143 144 144 143 142 141 138 138 137 135 132 132 137 165 288 316 338 112 112 113 111 98 87 81 75 70 66
146 148 156 161 162 159 158 157 154 151 151 148 144 140 138 139 143 145 145 145 144 142 139 138 139 139 138 140 153 196 259 286 275 128 115 120 119 107 96 88 76 71 66
153 154 157 157 165 164 162 159 151 147 146 142 139 136 135 141 144 149 147 144 143 143 143 143 143 144 148 157 176 209 247 263 234 115 115 126 125 121 111 104 87 60 57
183 167 167 158 162 169 165 156 158 153 149 148 146 146 151 156 156 151 143 145 145 148 149 152 156 163 172 181 195 215 240 249 189 135 135 138 138 153 198 238 251 261 255
190 177 168 159 158 172 161 161 165 161 163 162 158 165 169 156 143 136 143 145 150 156 161 163 173 193 206 197 190 211 232 249 161 134 144 147 154 183 234 255 258 258 255
192 188 178 162 166 171 164 168 164 161 169 166 166 175 168 148 144 150 155 164 168 178 176 174 194 212 216 195 192 212 199 207 225 133 152 161 169 191 236 265 265 260 257
190 187 184 167 169 185 175 175 170 164 168 162 165 174 158 145 150 155 163 168 176 181 174 185 209 206 200 195 208 209 187 203 206 153 161 173 181 195 218 252 267 269 259
192 188 185 172 177 187 187 180 172 165 164 159 163 169 155 152 156 158 159 163 177 173 171 192 211 195 190 185 196 202 213 209 226 163 161 182 192 201 216 236 249 255 247
189 185 190 177 183 184 187 188 174 166 162 157 163 169 160 157 163 162 156 159 169 166 173 191 214 186 174 163 190 222 202 186 255 269 162 173 188 199 211 222 221 220 206
179 179 188 176 175 184 188 186 178 167 164 159 161 167 166 162 165 162 154 159 167 169 171 175 191 151 163 164 207 226 171 157 277 285 284 174 159 161 182 196 189 180 178
179 175 177 173 171 181 191 183 174 166 169 160 158 160 168 165 165 160 155 162 166 161 161 172 177 165 178 193 210 189 158 179 219 248 353 87 106 115 127 146 157 163 166
159 161 171 171 178 181 179 173 163 164 172 166 157 158 167 168 168 162 156 165 160 154 169 173 177 183 182 178 182 183 211 218 199 143 107 89 98 107 115 125 138 138 143
147 155 171 169 182 183 180 176 169 172 173 169 166 160 164 167 169 163 161 167 160 163 175 178 177 184 195 158 134 232 257 225 174 142 119 96 94 105 110 110 121 124 122
142 155 158 169 176 186 184 179 170 159 164 158 154 156 156 160 160 164 167 169 167 163 172 181 179 174 184 167 159 172 235 258 202 144 124 115 108 111 107 100 101 101 105
130 151 167 167 176 188 178 153 152 147 142 146 156 159 156 156 153 157 164 164 169 171 180 186 187 183 189 194 180 169 176 204 169 162 163 142 140 132 114 98 91 90 96
132 143 157 166 159 169 147 143 159 159 163 164 163 154 147 145 151 158 163 166 169 173 182 189 186 181 174 192 197 197 187 146 147 172 235 178 163 153 140 125 110 99 97
82 99 125 130 134 163 147 147 148 153 157 145 144 149 153 154 166 169 167 178 180 180 188 183 171 174 168 181 178 175 199 170 171 165 205 211 202 185 153 138 125 115 104
56 59 87 113 106 107 125 134 144 157 159 152 155 162 172 170 182 181 180 188 190 185 183 183 177 171 172 180 180 173 164 167 187 183 202 208 209 199 158 136 128 123 114
Height
1481 1483 1488 1492 1496 1498 1501 1503 1506 1508 1510 1513 1516 1519 1521 1523 1525 1527 1529 1530 1532 1533 1535 1536 1538 1539 1540 1541 1542 1543 1543 1544 1544 1544 1544 1544 1544 1544 1544 1544 1544 1544 1543
1479 1482 1487 1492 1495 1498 1500 1503 1505 1507 1510 1513 1516 1519 1521 1524 1526 1528 1529 1531 1533 1535 1536 1538 1539 1541 1542 1543 1544 1545 1545 1546 1546 1547 1547 1547 1546 1546 1546 1546 1546 1545 1545
1480 1482 1487 1491 1494 1498 1500 1502 1504 1507 1509 1512 1515 1518 1521 1524 1526 1528 1530 1532 1534 1536 1537 1539 1541 1542 1544 1545 1546 1547 1548 1548 1548 1548 1548 1549 1548 1548 1548 1548 1547 1547 1547
1480 1482 1486 1490 1494 1497 1500 1502 1504 1506 1509 1512 1515 1518 1521 1524 1526 1529 1531 1533 1535 1537 1539 1540 1542 1544 1545 1546 1548 1549 1550 1550 1551 1551 1551 1550 1550 1550 1550 1549 1549 1549 1548
1481 1483 1486 1490 1494 1497 1499 1502 1504 1506 1509 1512 1515 1518 1521 1524 1527 1529 1531 1534 1536 1538 1540 1542 1543 1545 1547 1548 1549 1550 1551 1552 1552 1553 1552 1552 1552 1551 1551 1551 1551 1550 1550
1481 1483 1486 1490 1493 1496 1499 1502 1504 1506 1509 1512 1515 1518 1521 1524 1527 1529 1532 1534 1537 1539 1541 1543 1545 1546 1548 1549 1550 1552 1553 1553 1554 1554 1554 1553 1553 1553 1553 1552 1552 1552 1551
1481 1483 1486 1490 1493 1496 1499 1501 1504 1506 1509 1511 1515 1518 1521 1524 1527 1529 1532 1535 1537 1540 1542 1544 1546 1547 1549 1550 1552 1553 1554 1554 1555 1555 1555 1555 1555 1554 1554 1553 1553 1553 1552
1481 1483 1486 1489 1492 1495 1498 1501 1503 1506 1508 1511 1514 1518 1521 1524 1527 1530 1532 1535 1538 1540 1543 1545 1547 1548 1550 1551 1552 1554 1554 1555 1556 1556 1556 1556 1556 1555 1555 1555 1554 1554 1553
1481 1482 1484 1488 1491 1494 1497 1500 1503 1506 1508 1511 1514 1517 1520 1523 1527 1530 1533 1535 1538 1541 1543 1545 1547 1549 1550 1552 1553 1554 1555 1556 1556 1557 1557 1557 1557 1556 1556 1555 1555 1554 1554
1479 1480 1483 1486 1490 1492 1496 1499 1502 1505 1508 1511 1514 1517 1520 1523 1526 1529 1533 1535 1538 1541 1543 1546 1547 1549 1551 1552 1553 1555 1556 1556 1557 1557 1557 1557 1557 1557 1556 1556 1555 1555 1554
1477 1479 1481 1484 1488 1491 1494 1498 1501 1504 1507 1510 1513 1516 1519 1523 1526 1529 1532 1535 1538 1541 1543 1546 1547 1549 1551 1552 1554 1555 1556 1556 1558 1558 1558 1558 1557 1557 1556 1556 1555 1555 1555
1475 1477 1479 1481 1485 1489 1492 1496 1499 1502 1505 1509 1512 1515 1519 1522 1525 1528 1532 1535 1538 1540 1543 1545 1547 1549 1551 1552 1553 1555 1556 1556 1558 1557 1557 1557 1557 1557 1556 1556 1555 1555 1554
1473 1474 1477 1479 1482 1486 1489 1493 1497 1500 1504 1507 1511 1514 1518 1521 1524 1527 1531 1534 1537 1539 1542 1544 1546 1548 1550 1551 1553 1554 1555 1556 1557 1557 1557 1557 1556 1556 1555 1555 1554 1554 1554
1470 1472 1474 1476 1479 1482 1486 1490 1494 1498 1502 1505 1509 1513 1516 1520 1522 1525 1529 1532 1535 1538 1541 1543 1545 1547 1549 1551 1553 1554 1555 1556 1556 1556 1556 1556 1555 1555 1554 1554 1553 1553 1553
1466 1468 1471 1473 1476 1479 1482 1488 1492 1496 1500 1504 1507 1511 1515 1518 1521 1524 1528 1531 1534 1537 1539 1542 1544 1546 1548 1550 1552 1553 1554 1555 1555 1555 1555 1554 1554 1553 1553 1552 1552 1551 1551
1462 1465 1467 1470 1474 1477 1479 1484 1489 1494 1498 1502 1505 1509 1513 1516 1519 1523 1526 1529 1533 1535 1538 1540 1543 1545 1547 1549 1550 1551 1552 1553 1554 1554 1553 1552 1552 1551 1551 1550 1550 1550 1549
1460 1462 1464 1467 1470 1474 1477 1481 1487 1491 1496 1499 1503 1507 1511 1514 1518 1521 1524 1527 1531 1533 1536 1539 1541 1544 1545 1547 1548 1549 1550 1551 1551 1552 1551 1551 1550 1549 1549 1548 1548 1547 1547
1458 1460 1461 1464 1467 1471 1475 1478 1483 1488 1493 1497 1501 1505 1509 1512 1515 1519 1522 1525 1528 1531 1534 1536 1539 1541 1543 1544 1545 1547 1548 1548 1549 1549 1549 1549 1548 1547 1546 1546 1546 1545 1545
1455 1457 1459 1462 1464 1468 1471 1476 1480 1485 1490 1494 1498 1502 1506 1510 1513 1516 1520 1523 1526 1529 1531 1533 1536 1538 1540 1541 1543 1544 1545 1545 1546 1547 1547 1546 1546 1545 1544 1544 1543 1543 1543
1452 1454 1457 1458 1462 1465 1468 1473 1478 1483 1487 1492 1496 1500 1503 1507 1511 1514 1517 1520 1523 1526 1528 1530 1533 1535 1537 1539 1540 1541 1542 1543 1543 1544 1544 1544 1543 1543 1542 1542 1541 1541 1541
1449 1452 1454 1456 1460 1463 1466 1471 1475 1480 1485 1489 1493 1497 1501 1504 1508 1511 1514 1517 1520 1522 1525 1527 1530 1532 1534 1536 1537 1538 1539 1540 1540 1541 1541 1541 1541 1540 1540 1540 1539 1539 1539
1447 1449 1451 1454 1457 1461 1464 1468 1473 1477 1482 1486 1490 1494 1497 1501 1504 1508 1511 1514 1516 1519 1522 1524 1526 1528 1530 1532 1534 1535 1536 1537 1537 1538 1538 1538 1538 1538 1538 1537 1537 1537 1536
1445 1447 1449 1453 1456 1459 1462 1466 1470 1475 1480 1483 1487 1491 1494 1498 1501 1504 1507 1510 1513 1515 1518 1520 1523 1524 1526 1528 1530 1532 1533 1533 1534 1534 1535 1535 1535 1535 1535 1535 1534 1534 1533
1445 1447 1449 1451 1454 1457 1460 1463 1467 1471 1476 1480 1484 1488 1491 1494 1497 1500 1503 1506 1509 1511 1513 1516 1518 1520 1522 1524 1525 1527 1529 1530 1531 1531 1532 1532 1531 1532 1532 1531 1531 1531 1530
1445 1447 1448 1450 1452 1456 1459 1463 1466 1470 1474 1478 1482 1485 1488 1491 1494 1497 1499 1502 1504 1507 1509 1511 1513 1515 1517 1519 1520 1522 1524 1526 1526 1527 1528 1528 1528 1528 1528 1528 1527 1527 1527
1445 1448 1449 1451 1453 1456 1459 1462 1465 1468 1471 1475 1478 1481 1484 1487 1490 1492 1495 1497 1500 1502 1504 1507 1509 1510 1512 1514 1516 1518 1519 1520 1521 1523 1523 1524 1524 1524 1524 1523 1523 1523 1523